Wind from 195 at 2 knots gusting 6

Air temperature 13.3° C
Dewpoint 9.2° C

Last reported at 2014-Apr-23 01:00 UTC.
Time now 2014-Apr-23 19:20 UTC

Location: N 40°25' W 003°39'.
View on Google Maps.

See reports from other nearby stations

Tides Stations Pressure Air Temp Water Temp Dewpoint Dewpoint depression Visibility Wind Speed Wind Dir Waves Ship positions

  
sailing weather and tide predictions

EA4DB Madrid ES weather

date/time (UTC)wind fromknots sea level pressurealtimeterstation pressurevisibilityair tempwater tempwave heightnotes
2014-Apr-23 01:00 195 2 gusting 6 13.3
2014-Apr-23 00:42 217 2 gusting 6 13.9
2014-Apr-23 00:33 204 3 gusting 7 13.9
2014-Apr-23 00:15 248 3 gusting 8 14.4
2014-Apr-23 00:06 227 5 gusting 8 14.4
2014-Apr-22 23:39 221 4 gusting 10 14.4
2014-Apr-22 23:12 236 3 gusting 6 14.4
2014-Apr-22 23:03 260 2 gusting 8 13.9
2014-Apr-22 22:54 251 3 gusting 8 14.4
2014-Apr-22 22:36 248 3 gusting 4 14.4
2014-Apr-22 22:27 251 0 gusting 7 15.0
2014-Apr-22 22:18 248 0 gusting 7 15.0
2014-Apr-22 22:09 223 1 gusting 4 15.0
2014-Apr-22 21:51 262 5 gusting 6 15.0
2014-Apr-22 21:42 242 2 gusting 6 15.0
2014-Apr-22 21:15 257 5 gusting 10 15.6
2014-Apr-22 20:57 248 3 gusting 12 15.6
2014-Apr-22 20:48 254 1 gusting 10 15.0
2014-Apr-22 20:39 259 1 gusting 7 15.6
2014-Apr-22 20:30 253 2 gusting 11 15.6
2014-Apr-22 19:45 233 1 gusting 12 16.1
2014-Apr-22 19:09 267 5 gusting 11 16.7
2014-Apr-22 19:00 268 3 gusting 15 16.7
2014-Apr-22 18:51 242 4 gusting 15 16.7
2014-Apr-22 18:42 245 3 gusting 15 17.8
2014-Apr-22 18:33 243 4 gusting 14 17.8
2014-Apr-22 18:06 223 8 gusting 14 18.9
2014-Apr-22 17:39 252 2 gusting 16 19.4
2014-Apr-22 17:21 231 3 gusting 15 20.0
2014-Apr-22 16:27 216 6 gusting 15 20.6
2014-Apr-22 15:51 241 3 gusting 14 18.9
2014-Apr-22 15:42 208 7 gusting 13 19.4
2014-Apr-22 15:24 226 2 gusting 15 20.0
2014-Apr-22 14:48 220 6 gusting 13 18.9
2014-Apr-22 14:21 224 5 gusting 15 20.0
2014-Apr-22 14:03 227 1 gusting 13 19.4
2014-Apr-22 13:54 222 6 gusting 9 18.3
2014-Apr-22 13:18 253 4 gusting 13 19.4
2014-Apr-22 12:51 219 6 gusting 10 21.1
2014-Apr-22 12:33 225 6 gusting 13 19.4
2014-Apr-22 12:24 205 6 gusting 13 18.9
2014-Apr-22 12:15 245 3 gusting 15 20.0
2014-Apr-22 12:06 233 6 gusting 13 20.0
2014-Apr-22 11:48 224 6 gusting 12 18.3
2014-Apr-22 11:30 220 4 gusting 13 17.2
2014-Apr-22 11:21 219 5 gusting 13 18.9
2014-Apr-22 11:12 264 6 gusting 10 19.4
2014-Apr-22 10:36 245 3 gusting 13 16.7
2014-Apr-22 10:27 233 8 gusting 12 17.2
2014-Apr-22 10:09 294 6 gusting 9 17.2
2014-Apr-22 09:51 303 3 gusting 6 17.2
2014-Apr-22 09:42 286 2 gusting 7 16.7
2014-Apr-22 09:24 271 2 gusting 11 16.7
2014-Apr-22 09:15 282 2 gusting 9 16.7
2014-Apr-22 08:57 267 2 gusting 11 16.1
2014-Apr-22 08:48 294 1 gusting 10 16.1
2014-Apr-22 08:39 258 2 gusting 10 16.1
2014-Apr-22 08:21 251 1 gusting 9 15.6
2014-Apr-22 08:12 262 3 gusting 6 16.1
2014-Apr-22 07:54 266 1 gusting 4 16.7
2014-Apr-22 07:45 235 0 gusting 5 16.7
2014-Apr-22 07:36 206 0 gusting 4 16.1
2014-Apr-22 07:27 212 1 gusting 4 15.6
2014-Apr-22 07:18 207 0 gusting 4 14.4
2014-Apr-22 07:09 227 0 gusting 2 12.8
2014-Apr-22 06:51 207 0 gusting 3 12.2
2014-Apr-22 06:15 192 3 gusting 4 11.1
2014-Apr-22 05:30 214 10.6
2014-Apr-22 05:21 184 0 gusting 5 10.6
2014-Apr-22 05:12 214 3 gusting 6 10.6
2014-Apr-22 05:03 213 0 gusting 3 11.1
2014-Apr-22 04:54 208 1 gusting 3 10.6
2014-Apr-22 04:45 206 1 gusting 4 10.6
2014-Apr-22 04:36 215 2 gusting 4 11.1
2014-Apr-22 04:09 304 1 gusting 5 11.7
2014-Apr-22 04:00 273 3 gusting 6 11.1
2014-Apr-22 03:51 249 3 gusting 6 11.1
2014-Apr-22 03:42 235 10.6
2014-Apr-22 03:33 228 0 gusting 6 11.1
2014-Apr-22 03:24 246 1 gusting 3 10.6
2014-Apr-22 03:15 230 1 gusting 3 10.6
2014-Apr-22 03:06 235 0 gusting 6 11.1
2014-Apr-22 02:57 247 1 gusting 6 11.1
2014-Apr-22 02:48 211 0 gusting 6 11.1
2014-Apr-22 02:30 232 2 gusting 6 11.7
2014-Apr-22 02:21 235 3 gusting 7 11.7
2014-Apr-22 02:12 257 2 gusting 6 11.1
2014-Apr-22 02:03 240 4 gusting 6 11.1
2014-Apr-22 01:54 251 11.1
2014-Apr-22 01:45 270 1 gusting 6 11.7
2014-Apr-22 01:27 261 0 gusting 6 10.6
2014-Apr-22 01:09 231 2 gusting 7 11.1
2014-Apr-22 01:00 234 2 gusting 5 10.6
2014-Apr-22 00:51 230 2 gusting 6 11.1
2014-Apr-22 00:33 258 3 gusting 5 11.1
2014-Apr-22 00:24 280 1 gusting 9 11.1
2014-Apr-22 00:15 269 2 gusting 5 11.7
2014-Apr-22 00:06 260 2 gusting 6 11.7
2014-Apr-21 23:57 250 4 gusting 7 11.7
2014-Apr-21 23:48 242 2 gusting 7 11.7
2014-Apr-21 23:39 257 3 gusting 9 11.7
2014-Apr-21 23:30 218 5 gusting 11 12.2
2014-Apr-21 23:12 228 0 gusting 8 12.2
2014-Apr-21 23:03 203 0 gusting 3 12.2
2014-Apr-21 22:54 222 1 gusting 3 12.2
2014-Apr-21 22:36 236 3 gusting 5 12.8
2014-Apr-21 22:27 234 1 gusting 6 12.8
2014-Apr-21 22:18 235 2 gusting 4 13.3
2014-Apr-21 22:00 223 3 gusting 5 12.8
2014-Apr-21 20:57 253 3 gusting 9 13.3
2014-Apr-21 20:12 224 0 gusting 3 12.8
2014-Apr-21 19:54 208 1 gusting 4 12.8
2014-Apr-21 19:36 232 1 gusting 3 13.3
2014-Apr-21 19:27 231 0 gusting 3 12.8
2014-Apr-21 19:18 210 1 gusting 5 13.3
2014-Apr-21 19:09 242 1 gusting 6 13.3
2014-Apr-21 19:00 256 1 gusting 6 13.3